USA 157 (MILSTAR-2 2)

Last updated on Sat Jun 21 2025 00:02:42 GMT+0000 (Coordinated Universal Time)

1 26715U 01009A 25171.50334556 .00000112 00000+0 00000+0 0 9990 2 26715 11.1429 21.8954 0039964 178.2932 99.9565 1.00275510 29312
UTC large
Height (km)
Speed (km/s)
/
Latitude / Longitude
Inclination (degrees)
Orbital Period (minutes)
Azimuth
Elevation
Range (km)
Doppler Factor

Next 0 passes for location: London (51.5072 / 0.1276)

Sorry there are no passes over London.